Regional Weather Roundup
Issued by NWS

Home | Current Version | Previous Version | Text Only | Print | Product List | Glossary On
Versions: 1 2 3 4 5 6 7 8 9 10 11 12 13 14 15 16 17 18 19 20 21 22 23 24 25 26 27 28 29 30 31 32 33 34 35 36 37 38 39 40 41 42 43 44 45 46 47 48 49 50
000
ASUS43 KLMK 271710
RWRKY
KENTUCKY REGIONAL WEATHER ROUNDUP
NATIONAL WEATHER SERVICE LOUISVILLE KY
100 PM EDT THU APR 27 2017

NOTE "FAIR" INDICATES FEW OR NO CLOUDS BELOW 12,000 FEET
WITH NO SIGNIFICANT WEATHER AND/OR OBSTRUCTIONS TO VISIBILITY.

KYZ001>023-026-027-061>063-070>075-271800-
WESTERN AND SOUTH CENTRAL KENTUCKY

CITY           SKY/WX    TMP DP  RH WIND       PRES   REMARKS
PADUCAH        CLOUDY    54  44  69 W12       29.80R
HENDERSON      CLOUDY    55  48  77 W10       29.78R
OWENSBORO      CLOUDY    55  48  77 W12       29.78R
HOPKINSVILLE   CLOUDY    54  49  83 W15       29.81R
BOWLING GREEN  CLOUDY    63  54  72 SW16      29.78R
GLASGOW        PTSUNNY   65  55  70 W15G21    29.76R
$$

KYZ024-025-028>034-038-045-046-053-271800-
NORTH CENTRAL KENTUCKY

CITY           SKY/WX    TMP DP  RH WIND       PRES   REMARKS
LOUISVILLE/SDF CLOUDY    61  52  72 W18G24    29.72R
LOUISVILLE/LOU CLOUDY    61  54  77 W17       29.72R
FORT KNOX      CLOUDY    59  51  75 W16G25    29.73R
$$

KYZ035>037-039>044-047>052-055>060-089>105-271800-
NORTHEAST KENTUCKY

CITY           SKY/WX    TMP DP  RH WIND       PRES   REMARKS
LEXINGTON      MOSUNNY   74  56  53 SW25G35   29.68S
COVINGTON      LGT RAIN  62  59  90 SW9G31    29.65R
FRANKFORT      PTSUNNY   68  57  68 SW15G24   29.67R
$$

KYZ054-064>069-076>088-106>120-271800-
SOUTHEAST KENTUCKY

CITY           SKY/WX    TMP DP  RH WIND       PRES   REMARKS
JACKSON        LGT RAIN  65  61  87 VRB3      29.74R
LONDON         MOSUNNY   66  60  81 S8        29.74F
SOMERSET       PTSUNNY   72  55  56 W16G24    29.74S
MIDDLESBORO    CLOUDY    63  59  89 CALM      29.78S
MONTICELLO     MOSUNNY   73  59  61 SW14G30   29.75S
$$





USA.gov is the U.S. government's official web portal to all federal, state and local government web resources and services.